Retour au catalogue

DELTA 1 DEB

ActifSSO
NORAD 12528·DEBRIS·🇺🇸 United States

Lancé Jul 29, 1976 depuis Vandenberg Space Force Base

Loading…

Prochains Passages (prochaines 24 heures)

TLE

FraisSource: Space-Track

Époque: Sep 14, 2026, 09:28 UTC

1 12528U 76077DH  26257.39471345 -.00000046  00000-0 -41209-5 0  9996
2 12528 102.5757 243.6293 0077761 135.3251  27.2022 12.27228523182127

Suivez DELTA 1 DEB en temps réel avec AllMySat

Download on the App Store